User: anonymous   Login
Location: Ladysmith
(45.4630°N, 91.1040°W)
Time: 13:49:23
(UTC-06:00)
Language:

SO-67 - Orbit

View from above orbital plane
View from above orbital plane
View from above satellite
View from above satellite

Ground track
Ground track

The orbit data is extracted from the following two-line orbital elements,

1 35870U 09049F   17021.37358387  .00005249  00000-0  89823-4 0  9994
2 35870  97.1115  39.5463 0000249 121.4148 352.1137 15.51686145410442
Epoch (UTC): 21 January 2017 08:57:57
Eccentricity: 0.0000249
inclination: 97.1115°
perigee height: 411 km
apogee height: 412 km
right ascension of ascending node: 39.5463°
argument of perigee: 121.4148°
revolutions per day: 15.51686145
mean anomaly at epoch: 352.1137°
orbit number at epoch: 41044

The dashed part of the orbit path shows where the satellite is in the earth's shadow,  

DLR